BEIDOU 10

Last updated on Jan. 19, 2020, 4:37 a.m. UTC

1 37948U 11073A   20018.75514083 -.00000172  00000-0  10000-3 0  9992
2 37948  51.8193 299.6945 0064277 213.8421 330.3164  1.00289079 29929
UTC
Height (km)
Latitude
Longitude
Inclination
Orbital Period
UTC large
Height (km)
Speed (km/s)
/
Latitude / Longitude
Inclination (degrees)
Orbital Period (minutes)
Azimuth
Elevation
Range (km)
Doppler Factor
iOS Compass Heading
iOS Angle

Next 30 passes for location: Hong Kong

Rise time Rise Azimuth (degrees) Set time Set Azimuth (degrees) Duration Max altitude (degrees)

No matching passes for this satellites